EST,Max TemperatureF,Mean TemperatureF,Min TemperatureF,Max Dew PointF,MeanDew PointF,Min DewpointF,Max Humidity, Mean Humidity, Min Humidity, Max Sea Level PressureIn, Mean Sea Level PressureIn, Min Sea Level PressureIn, Max VisibilityMiles, Mean VisibilityMiles, Min VisibilityMiles, Max Wind SpeedMPH, Mean Wind SpeedMPH, Max Gust SpeedMPH,PrecipitationIn, CloudCover, Events, WindDirDegrees
2013-2-1,69,56,42,43,34,24,71,50,19,30.35,30.28,30.22,10,10,10,18,8,26,0.00,0,,24
2013-2-2,72,58,44,49,42,35,86,60,27,30.30,30.22,30.16,10,10,10,13,7,15,0.00,0,,10
2013-2-3,71,57,42,53,48,41,100,81,44,30.21,30.15,30.11,10,7,0,16,5,20,0.00,0,Fog,350
2013-2-4,69,55,41,49,44,31,100,77,24,30.14,30.10,30.05,10,8,0,14,3,18,0.00,0,Fog,313
2013-2-5,73,59,45,58,48,38,100,69,44,30.09,30.04,30.01,10,10,10,12,5,16,0.00,0,,145
2013-2-6,79,66,53,63,58,52,93,79,45,30.10,30.05,30.02,10,10,10,13,5,15,0.00,3,,145
2013-2-7,80,70,59,67,62,58,100,80,52,30.06,29.99,29.90,10,10,6,30,11,36,0.12,2,Rain,164
2013-2-8,79,69,59,66,61,55,93,80,45,30.08,29.99,29.90,10,10,9,22,9,26,0.00,2,,319
2013-2-9,78,68,57,57,53,50,100,67,37,30.18,30.13,30.07,10,10,9,16,8,21,0.00,0,,52
2013-2-10,83,72,60,62,59,56,84,70,40,30.22,30.17,30.13,10,10,10,21,11,26,0.00,2,,121
2013-2-11,81,71,61,66,63,59,93,78,54,30.19,30.13,30.09,10,10,10,23,11,28,0.00,0,,161
2013-2-12,80,72,64,70,67,63,100,86,71,30.09,30.03,29.96,10,9,5,22,12,26,0.00,1,,171
2013-2-13,79,71,63,72,67,52,100,87,67,29.99,29.94,29.88,10,8,0,26,13,37,0.05,6,Fog-Rain,196
2013-2-14,68,64,60,62,58,53,100,86,63,30.03,29.99,29.93,10,9,4,20,6,24,0.24,8,Rain,43
2013-2-15,70,64,58,59,57,51,97,83,66,30.07,30.01,29.96,10,10,6,13,5,15,0.12,6,Rain,6
2013-2-16,69,59,49,53,47,35,96,67,43,30.12,30.01,29.94,10,10,5,29,11,38,0.01,3,Rain,319
2013-2-17,55,48,41,36,24,16,67,41,26,30.34,30.27,30.14,10,10,10,22,9,31,0.00,0,,17
2013-2-18,72,54,35,46,37,25,82,54,30,30.35,30.28,30.20,10,10,10,21,9,26,0.00,1,,93
2013-2-19,76,62,48,62,54,45,87,75,49,30.21,30.15,30.09,10,10,10,20,8,25,0.00,0,,158
2013-2-20,77,67,57,64,61,55,100,90,64,30.12,30.08,30.02,10,5,0,15,5,17,T,5,Fog,349
2013-2-21,80,69,58,65,62,56,93,77,58,30.11,30.04,29.99,10,10,10,15,8,21,0.00,2,,141
2013-2-22,82,71,60,68,65,59,100,83,62,30.06,30.03,30.00,10,10,7,22,10,28,0.00,0,,165
2013-2-23,81,74,67,72,69,66,100,86,69,30.00,29.96,29.91,10,8,0,21,11,26,0.00,5,Fog,183
2013-2-24,78,73,67,70,68,66,100,92,74,29.97,29.93,29.90,10,5,0,15,7,20,0.00,4,Fog,199
2013-2-25,82,74,65,71,68,64,100,91,65,29.91,29.85,29.78,10,5,0,22,10,28,0.00,5,,128
2013-2-26,78,72,66,72,67,63,97,87,73,29.90,29.81,29.71,10,8,2,28,14,41,0.40,6,Rain,228
2013-2-27,74,66,58,62,57,54,87,71,53,29.98,29.94,29.88,10,10,10,14,7,20,0.00,4,,314
2013-2-28,72,63,53,56,52,48,86,67,47,30.01,29.97,29.94,10,10,10,16,7,21,0.00,2,,309